Location: Unspecified
(38.9820°N, 94.4650°W)
Time: 08:43:55
(UTC-05:00)

CZ-3 Stage 3 - Visible Passes

Search period start: 16 April 2014 00:00
Search period end: 26 April 2014 00:00
Orbit: 478 x 34778 km, 30.6° (Epoch: 14 April)

Date Brightness Start Highest point End Pass type
(mag) Time Alt. Az. Time Alt. Az. Time Alt. Az.
17 Apr 5.0 03:36:51 47° SSW 03:38:57 49° S 10:28:09 10° SSE visible
20 Apr 5.1 03:35:48 45° SSW 03:38:17 48° S 10:30:29 10° SSE visible
23 Apr 5.2 03:34:46 43° SSW 03:37:38 46° S 10:32:25 10° SSE visible
